STARLINK-35289, 65809

Orbit data source: Space-Track

STARLINK-35289, 65809 is a payload satellite owned by SpaceX/Seattle (US) in SSO that was launched on Fri, 26 Sep 2025 UTC via an FALCON 9 launch vehicle from the Air Force Western Test Range (AFWTR). Payload-class satellites include a variety of spacecraft equipped with specific instruments for various scientific and technological missions. These include communications satellites like Starlink; space stations such as the ISS; scientific satellites like the Hubble; Earth observation satellites from companies like Planet Labs, Umbra, and HawkEye 360; GPS; miniature CubeSats for education and research; and military/defense satellites.

Loading next visibility...
Identifier
65809, 2025-218U
Orbit
SSO
Country
Flag of USUS
Related business
Manufacturer
SpaceX/Seattle
Mission
Operational Commercial Communications
Bus & Motor
STARLINK V2MO, Unknown motor
Mass
575 kg wet, ~530 kg dry
Launch date (UTC)
2025-09-26 (2 months ago)
Launch vehicle
FALCON 9
Launch site
Air Force Western Test Range (AFWTR)
Object type
Payload
Rocket body
Debris
Shape & HBR
Box + 2 Pan, 17.7 m
Radar Cross Section
36.964 m²

Expand to show TLE details & history
Last TLE update: 15 hours ago

TLE from 15 hours ago
0 STARLINK-35289
1 65809U 25218U   25340.59754688  .00012977  00000-0  90119-3 0  9991
2 65809  97.6025 201.2187 0002573  78.8241 281.3275 15.05678964 10962
Epoch: 2025-12-06T14:20Z
TLE epoch observation values (Epoch: 2025-12-06T14:20:28.050Z)
Latitude
-0.00002°
Longitude
-89.52117°
Altitude
552.138 km
Speed
7.586 km/s
True Right ascension
13h 24m 52s
True Declination
0° 00' 00"
Sunlit
Object was in daylight at epoch
Visualization orbit readout
Latitude
Unknown
Longitude
Unknown
Altitude
Unknown
Speed
Unknown
Apparent Right ascension
Unknown
Apparent Declination
Unknown
Sunlit
N/A
Visualization observer readout
Local Sidereal Time
03:23:49
Azimuth
Unknown
Elevation
Unknown
Doppler factor
Unknown
Orbital elements
Apogee altitude
548.197 km
Perigee altitude
544.634 km
Semi-major axis
6,924.553 km
Eccentricity
0.00026
Inclination
97.6025°
RAAN
201.2187°
Arg. of periapsis
78.8241°
True anomaly
281.29859°
Mean anomaly
281.3275°
Eccentric anomaly
281.31304°
Mean motion
3.76665 °/min
Orbital period
95.58 mins
BSTAR
0.00090119
Loading maneuver chart data...
Computing Atmospheric mass density...
Loading historical data...
Loading historical data...
Loading historical data...
Loading historical data...
Loading historical data...
Loading historical data...
Loading historical data...

Documentation

Showing up to 5 results
|